SCP
0 0 0 0 0 0 0 0 0 0 0 0 0 0 0 0 0 0 0 0 0 0 0 0 0 0 0 0 0 0 0 0 0 0 0 0 0 0 0 0 0 0 0 0
0 0 0 0 0 0 0 0 0 0 0 0 0 0 0 0 0 0 0 0 0 0 0 0 0 0 0 0 0 0 0 0 0 0 0 0 0 0 0 0 0 0 0 0
0 0 0 0 0 0 0 0 0 0 0 0 0 0 0 0 0 0 0 0 0 0 0 0 0 0 0 0 0 0 0 0 0 0 0 0 0 0 0 0 0 0 0 0
0 0 0 0 0 0 0 0 0 0 0 0 0 0 0 0 0 0 0 0 0 0 0 0 0 0 0 0 0 0 0 0 0 0 0 0 0 0 0 0 0 0 0 0
0 0 0 0 0 0 0 0 0 0 0 0 0 0 0 0 0 0 0 0 0 0 0 0 0 0 0 0 0 0 0 0 0 0 0 0 0 0 0 0 0 0 0 0
0 0 0 0 0 0 0 0 0 0 0 0 0 0 0 0 0 0 0 0 0 0 0 0 0 0 0 0 0 0 0 0 0 0 0 0 0 0 0 0 0 0 0 0
0 0 0 0 0 0 0 0 0 0 0 0 0 0 0 0 0 0 0 0 0 0 0 0 0 0 0 0 0 0 0 0 0 -0 0 0 0 0 0 0 0 0 0 0
0 0 0 0 0 0 0 0 0 0 0 0 0 0 0 0 0 0 0 0 0 0 0 0 0 0 0 0 0 0 0 0 0 -0 -0 0 0 0 0 0 0 0 0 0
0 0 0 0 0 0 0 0 0 0 0 0 0 0 0 0 0 0 0 0 0 0 0 0 0 0 0 0 0 0 0 0 0 0 0 0 0 0 0 0 0 0 0 0
0 0 0 0 0 0 0 0 0 0 0 0 0 0 0 0 0 0 0 0 0 0 0 0 0 0 0 0 0 0 0 0 0 0 0 0 0 0 0 0 0 0 0 0
0 0 0 0 0 0 0 0 0 0 0 0 0 0 0 0 0 0 0 0 0 0 0 0 0 0 0 0 0 0 0 0 0 0 0 0 0 0 0 0 0 0 0 0
0 0 0 0 0 0 0 0 0 0 0 0 0 0 0 0 0 0 0 0 0 0 0 0 0 0 0 0 0 0 0 0 0 0 0 0 0 0 0 0 0 0 0 0
0 0 0 0 0 0 0 0 0 0 0 0 0 0 0 0 0 0 -0 0 0 0 0 0 0 0 0 0 0 0 0 0 0 0 0 0 0 0 0 0 0 0 0 0
0 0 0 0 0 0 0 0 0 0 0 0 0 0 0 0 -0 -0 -0 -0 -0 0 0 0 0 0 0 0 0 0 0 0 0 0 0 0 0 0 0 0 0 0 0 0
0 0 0 0 0 0 0 0 0 0 0 0 0 0 0 0 -0 -0 -0 -0 -0 0 0 0 0 0 0 0 0 0 0 0 0 0 0 0 0 0 0 0 0 0 0 0
0 0 0 0 0 0 0 0 0 0 0 0 0 0 0 0 -0 0 0 0 0 0 0 0 0 0 0 0 0 0 0 0 0 0 0 0 0 0 0 0 0 0 0 0
0 0 0 0 0 0 0 0 0 0 0 0 0 0 0 0 0 0 0 0 0 0 0 0 0 0 0 0 0 0 0 0 0 0 0 0 0 0 0 0 0 0 0 0
0 0 0 0 0 0 0 0 0 0 0 0 0 0 0 0 0 0 0 0 0 0 0 0 0 0 0 0 0 0 0 0 0 0 0 0 0 0 0 0 0 0 0 0
0 0 0 0 0 0 0 0 0 0 0 0 0 0 0 0 0 0 0 0 0 0 0 0 0 0 0 0 0 0 0 0 0 0 0 0 0 0 0 0 0 0 0 0
0 0 0 0 0 0 0 0 0 0 0 0 0 0 0 0 0 0 0 0 0 0 0 0 0 0 0 0 0 0 0 0 0 0 0 0 0 0 0 0 0 0 0 0
0 0 0 0 0 0 0 0 0 0 0 0 0 0 0 0 0 0 0 0 0 0 0 0 0 0 0 0 0 0 0 0 0 0 0 0 0 0 0 0 0 0 0 0
0 0 0 0 0 0 0 0 0 0 0 0 0 0 0 0 0 0 0 0 0 0 0 0 0 0 -0 0 0 0 0 0 0 0 0 0 0 0 0 0 0 0 0 0
0 0 0 0 0 0 0 0 0 0 0 0 0 0 0 0 0 0 0 0 0 0 0 0 0 0 0 0 0 0 0 0 0 0 0 0 0 0 0 0 0 0 0 0
0 0 0 0 0 0 0 0 0 0 0 0 0 0 0 0 0 0 0 0 0 0 -0 -0 0 0 0 0 0 0 0 0 0 0 0 0 0 0 0 0 0 0 0 0
0 0 0 0 0 0 0 0 0 0 0 0 0 0 0 0 0 0 0 0 0 -0 -0 -0 -0 -0 -0 0 0 0 0 0 0 0 0 0 0 0 0 0 0 0 0 0
0 0 0 0 -0 -0 -0 0 0 0 0 0 0 0 0 0 0 0 0 0 -0 -0 -0 -0 -0 -0 -0 0 0 0 0 0 0 0 0 0 0 0 0 0 0 0 0 0
Wind_Speed
2 2 4 7 7 5 2 2 5 4 1 1 6 10 11 6 3 5 6 5 5 5 4 1 1 1 1 1 1 1 2 2 2 2 2 2 2 2 2 2 3 3 3 3
2 5 6 4 3 3 2 3 4 3 1 1 4 9 9 6 5 6 6 6 5 3 2 2 0 1 1 1 0 1 2 3 3 2 2 2 2 1 2 1 2 3 3 3
5 4 3 3 2 3 5 5 4 4 4 2 3 8 5 4 3 3 3 3 3 3 3 2 0 0 0 0 0 1 1 2 2 2 2 2 2 1 1 1 2 2 3 4
4 3 1 3 4 4 6 4 4 3 1 3 1 6 6 3 3 3 2 1 1 1 1 0 0 0 0 1 0 0 1 1 2 3 3 3 3 2 2 1 1 1 2 3
4 2 2 4 5 4 5 2 2 2 2 3 2 4 8 2 4 5 3 2 1 1 0 0 1 0 1 1 1 1 1 1 2 2 3 3 2 1 0 0 0 1 1 2
3 2 3 4 2 3 2 2 2 2 2 4 5 5 7 3 4 3 2 1 1 1 1 2 2 3 3 3 3 2 2 2 1 1 2 2 2 2 1 1 1 1 1 1
3 3 1 1 1 1 2 3 2 3 1 6 2 4 8 4 3 3 3 2 1 1 2 3 3 3 3 3 3 2 2 2 1 1 1 1 2 2 3 2 2 2 1 1
2 4 3 2 4 4 3 5 5 4 5 5 2 6 6 3 2 1 0 1 2 2 2 2 2 2 2 2 3 2 2 2 1 1 1 0 0 1 1 2 2 2 2 2
5 5 2 1 1 5 4 4 3 3 0 3 5 5 5 1 2 2 2 3 2 2 2 2 2 2 2 2 2 1 1 1 1 1 1 1 1 0 1 1 1 1 1 1
4 4 3 2 1 0 2 3 3 4 3 5 5 4 5 3 2 1 0 1 0 1 2 2 2 2 2 2 2 2 2 1 2 2 1 1 1 1 1 1 1 1 1 1
2 3 2 1 4 5 3 2 3 3 4 5 4 6 4 4 3 3 2 2 1 0 1 1 2 2 2 3 3 3 3 2 2 2 2 2 2 2 2 1 1 1 1 1
3 3 3 5 4 2 4 5 5 5 5 4 4 7 2 1 1 2 2 2 1 1 1 1 1 2 3 3 3 3 3 3 2 2 2 2 2 2 2 2 2 2 1 1
4 3 0 4 3 1 2 3 4 2 2 4 5 8 2 2 1 0 1 1 1 1 1 1 2 2 2 2 2 3 3 3 3 2 2 2 2 2 2 2 2 2 1 1
3 4 6 9 6 4 4 5 4 4 4 6 9 9 6 4 4 3 2 1 1 1 1 1 1 1 1 2 2 2 3 3 3 2 2 2 2 2 2 2 2 2 1 1
3 4 5 7 6 4 7 8 8 10 10 10 10 9 9 7 6 4 3 2 1 1 1 1 0 1 1 2 2 2 3 3 2 2 2 2 2 2 2 2 2 2 2 2
3 3 2 6 5 5 9 10 10 12 11 11 10 11 7 4 2 3 3 3 3 3 2 1 0 0 1 2 2 2 2 3 2 2 2 2 2 2 2 2 2 2 2 2
3 4 2 5 4 3 10 10 10 8 7 8 11 10 3 3 4 4 4 3 3 2 2 2 1 1 1 2 2 1 2 2 2 2 2 2 2 2 2 2 2 2 2 2
5 5 3 2 0 10 10 3 7 8 8 8 6 5 4 5 4 3 2 2 1 1 1 1 1 1 2 2 2 2 2 2 2 2 2 2 2 2 2 2 2 2 2 1
6 6 3 3 5 10 8 3 5 6 8 6 7 5 3 2 2 3 1 0 1 2 1 1 0 1 1 2 2 2 2 2 2 2 2 2 2 2 2 2 2 2 1 1
3 4 5 4 5 9 7 3 2 3 7 3 3 5 3 0 2 4 1 0 0 1 0 1 1 1 1 2 2 1 1 1 2 2 2 2 2 1 1 2 2 2 2 1
3 4 7 8 7 10 6 2 3 5 6 1 4 5 4 4 5 2 0 0 0 0 1 1 1 1 1 2 2 1 1 2 3 3 2 2 2 2 1 2 2 2 2 2
8 7 7 6 7 11 2 4 5 4 0 1 1 3 3 3 1 1 1 1 0 0 0 1 1 1 2 2 2 2 2 3 3 2 2 2 2 2 1 1 2 1 1 1
8 8 6 9 8 2 2 3 2 1 1 2 2 2 2 2 2 2 2 1 1 0 0 0 1 1 2 2 2 2 3 3 3 2 2 2 2 2 2 1 1 1 1 1
5 2 3 4 6 4 3 2 2 1 2 2 2 2 2 3 3 2 2 1 1 0 0 0 1 1 2 3 3 2 3 2 2 2 2 2 1 2 2 1 1 0 1 1
6 4 4 6 5 3 5 5 4 2 2 1 1 1 2 2 3 2 2 2 1 1 1 0 0 1 3 3 3 3 2 1 1 2 2 2 1 1 1 1 1 2 2 2
6 7 8 9 7 6 6 4 4 4 4 4 3 2 2 3 3 3 2 2 2 2 1 1 1 2 3 3 3 3 2 1 0 1 2 1 1 1 1 1 2 4 4 5
Wind_Direction
152 117 206 214 207 211 199 231 257 260 264 218 242 261 272 271 244 248 251 246 241 245 256 262 211 166 105 83 107 169 175 164 150 148 156 167 188 179 181 186 184 177 177 176
93 237 230 212 217 224 238 260 270 292 316 235 267 274 269 259 240 231 237 241 240 254 297 313 346 86 120 142 155 158 175 170 173 174 170 173 170 181 182 176 183 182 181 178
193 235 213 189 215 227 232 222 239 261 328 303 309 297 271 263 245 247 240 236 229 222 238 258 261 173 85 92 204 202 190 170 167 144 114 95 86 73 94 200 205 200 188 184
237 264 213 204 223 208 246 222 223 244 279 281 260 289 283 258 286 273 263 259 247 243 240 232 164 58 304 282 301 10 145 138 138 137 138 145 163 192 227 220 227 206 189 190
244 225 192 216 231 204 226 221 203 224 220 274 237 236 281 290 279 277 270 257 260 269 187 127 89 95 34 25 27 39 68 91 116 138 155 162 171 197 186 146 164 233 200 189
255 251 206 213 230 199 172 66 38 45 88 262 223 201 275 242 241 273 288 285 279 0 50 59 50 51 40 30 31 40 65 57 70 115 142 163 176 167 152 184 195 224 250 225
288 268 265 149 122 58 119 109 23 351 327 250 223 205 253 255 252 247 254 273 338 56 71 64 59 54 45 32 28 35 67 59 60 86 110 178 190 184 192 200 207 212 224 246
229 272 237 199 181 182 191 164 172 206 231 276 283 232 255 276 315 327 59 96 64 60 66 69 71 68 53 36 30 38 54 47 54 75 55 32 144 197 223 220 211 214 223 230
196 254 290 220 188 153 167 205 192 155 257 278 263 268 295 286 8 33 68 78 67 56 60 65 58 50 39 30 18 26 52 44 44 53 63 53 47 37 295 277 238 240 253 236
176 247 284 301 54 262 179 163 129 153 186 246 266 252 242 257 267 286 106 110 56 36 39 40 43 37 26 17 6 18 31 31 28 36 37 47 24 13 6 18 342 315 296 303
170 192 291 333 201 200 165 181 184 176 190 194 245 257 229 219 213 205 223 206 175 76 29 29 24 20 24 21 17 17 12 16 23 25 28 30 20 20 27 24 2 350 347 344
182 152 238 249 249 200 189 195 171 183 228 218 232 259 286 241 232 185 206 195 158 132 109 65 45 34 29 23 13 10 7 9 3 9 25 24 14 19 21 8 354 356 356 343
155 148 208 322 313 295 231 221 204 202 190 207 220 254 306 17 3 294 190 190 172 161 142 62 56 41 24 14 8 4 360 352 354 9 20 17 14 13 1 357 351 351 351 350
139 168 191 212 227 200 236 240 211 191 215 234 234 247 268 277 276 281 276 246 189 170 162 120 60 23 6 1 359 358 351 348 355 7 13 3 346 335 333 347 347 348 351 339
136 208 232 251 258 238 236 242 224 218 223 229 245 242 252 250 246 246 254 236 192 203 194 190 201 321 342 351 348 350 346 348 354 5 359 335 330 337 350 351 349 356 358 345
153 204 231 266 258 261 263 250 236 235 236 241 256 260 261 269 273 263 252 230 228 222 214 216 215 329 336 332 325 341 341 340 355 356 332 333 345 353 357 347 351 2 360 2
181 168 186 260 284 317 266 237 222 223 219 214 234 245 251 259 250 248 247 247 239 221 212 224 238 253 301 309 313 315 320 336 354 349 338 344 351 349 346 350 10 360 349 4
179 174 189 239 21 241 248 214 210 220 232 224 234 243 234 237 249 258 235 221 237 228 222 239 260 310 327 327 337 343 351 356 0 351 344 348 349 340 344 360 360 343 343 341
199 181 185 194 233 266 278 233 192 208 249 230 234 247 271 301 311 282 279 122 217 247 237 219 219 317 331 337 346 5 5 6 7 344 338 337 336 337 341 340 330 330 330 331
180 179 183 195 214 240 250 226 192 159 258 226 206 227 235 182 263 260 218 50 350 328 49 92 60 32 3 348 9 22 350 351 333 319 317 324 334 327 318 316 322 328 319 321
167 192 207 215 231 255 253 222 133 186 248 217 206 214 203 216 239 251 131 247 168 117 75 80 70 40 0 357 23 15 348 328 321 328 329 336 336 323 325 336 341 344 346 354
187 190 204 193 219 249 221 148 183 217 8 194 215 207 206 227 255 217 186 194 199 355 52 78 67 15 2 4 18 4 341 332 341 346 343 339 337 338 354 358 358 5 6 7
206 199 195 199 216 236 164 178 196 151 208 251 240 229 191 209 234 230 207 199 224 251 317 56 70 9 359 3 14 344 326 341 344 344 337 336 339 351 0 354 355 11 14 0
242 209 195 238 252 247 240 241 271 267 247 251 227 210 196 217 222 218 213 218 229 260 324 12 38 345 334 346 351 332 322 338 333 319 323 331 335 346 357 345 333 290 257 273
214 189 212 242 256 281 260 236 226 231 232 238 251 236 225 214 229 220 220 229 233 252 285 275 258 285 304 324 330 329 330 337 322 314 319 325 326 324 326 323 296 280 254 243
201 197 205 233 222 214 236 222 206 210 230 230 231 252 250 221 222 221 228 232 229 238 247 243 255 274 293 308 308 317 324 312 274 300 309 304 301 303 304 311 317 314 305 297